Flag for U.S.A. Weather past 2 weeks in Sacramento, California, U.S.A.

Now
70 °F

Clear.


Feels Like: 77 °F
Forecast: 64 / 100 °F
Wind: 3 mph from Southeast

Location: Sacramento Executive Airport

Current Time: Jul 26, 2014 at 3:09:40 AM

Latest Report: Jul 26, 2014 at 1:53 AM


Visibility: 10 mi

Pressure: 29.83 "Hg

Humidity: 55%

Dew point: 53 °F

Location of SacramentoLocation

Historic Weather in Sacramento — Graph

°F

Sacramento temperature yesterday

Maximum temperature yesterday: 101 °F (at 4:53 PM)
Minimum temperature yesterday: 63 °F (at 4:53 AM)
Average temperature yesterday: 82 °F

Past Weeks' High & Low Weather Summary

 TemperatureHumidityPressure
High103 °F (Jul 14, 3:53 PM)90% (Jul 23, 5:53 AM)30.12 "Hg (Jul 23, 5:53 AM)
Low59 °F (Jul 12, 1:53 AM)8% (Jul 25, 4:53 PM)29.76 "Hg (Jul 25, 6:53 PM)
Average74 °F58%29.92 "Hg
* Reported Jul 11 1:53 AM — Jul 26 1:53 AM, Sacramento, Weather by CustomWeather, © 2014

Note: Actual official high and low records may vary slightly from our data, if they occured in-between our weather recording intervals... More about our weather records

Advertising

Sacramento weather history for previous 24 hours

 ConditionsComfort  
Time TempWeatherWind HumidityBarometerVisibility
1:53 AM
Jul 26
70 °FClear.3 mph55%29.83 "Hg10 mi
12:53 AM73 °FClear.No wind48%29.83 "Hg10 mi
11:53 PM
Jul 25
74 °FClear.No wind48%29.82 "Hg10 mi
10:53 PM76 °FClear.3 mph42%29.81 "Hg10 mi
9:53 PM82 °FClear.5 mph34%29.80 "Hg10 mi
8:53 PM88 °FSunny.8 mph24%29.78 "Hg10 mi
7:53 PM94 °FSunny.10 mph21%29.77 "Hg10 mi
6:53 PM99 °FSunny.No wind9%29.76 "Hg10 mi
5:53 PM101 °FSunny.3 mph9%29.77 "Hg10 mi
4:53 PM101 °FSunny.3 mph8%29.78 "Hg10 mi
3:53 PM99 °FSunny.No wind11%29.79 "Hg10 mi
2:53 PM98 °FSunny.3 mph14%29.81 "Hg10 mi
1:53 PM96 °FSunny.5 mph19%29.83 "Hg10 mi
12:53 PM94 °FSunny.No wind21%29.84 "Hg10 mi
11:53 AM92 °FSunny.7 mph25%29.85 "Hg10 mi
10:53 AM87 °FSunny.3 mph32%29.86 "Hg10 mi
9:53 AM82 °FSunny.No wind41%29.86 "Hg10 mi
8:53 AM76 °FSunny.No wind48%29.86 "Hg10 mi
7:53 AM71 °FSunny.No wind55%29.85 "Hg10 mi
6:53 AM64 °FClear.No wind70%29.83 "Hg10 mi
5:53 AM64 °FClear.No wind70%29.81 "Hg10 mi
4:53 AM63 °FClear.No wind75%29.80 "Hg10 mi
3:53 AM64 °FClear.No wind70%29.79 "Hg10 mi
Weather by CustomWeather, © 2014

See weather overviewHow to use our weather pages